Location: Trzemesnia
(49.4400°N, 19.5900°E)
Time: 10:27:37
(UTC+02:00)

ISS - Visible Passes

Search period start: 26 September 2018 00:00
Search period end: 06 October 2018 00:00
Orbit: 403 x 408 km, 51.6° (Epoch: 26 September)

Date Brightness Start Highest point End Pass type
(mag) Time Alt. Az. Time Alt. Az. Time Alt. Az.
26 Sep -3.9 20:12:22 10° WSW 20:15:41 89° SSE 20:16:23 52° ENE visible
27 Sep -3.7 19:20:31 10° WSW 19:23:47 63° SSE 19:26:35 13° ENE visible
27 Sep -2.2 20:57:06 10° W 20:59:16 35° WNW 20:59:16 35° WNW visible
28 Sep -3.6 20:05:06 10° W 20:08:23 66° N 20:09:23 40° ENE visible
28 Sep -0.4 21:41:50 10° WNW 21:42:03 11° WNW 21:42:03 11° WNW visible
29 Sep -3.8 19:13:06 10° WSW 19:16:25 82° NNW 19:19:26 12° ENE visible
29 Sep -2.3 20:49:51 10° WNW 20:52:07 37° NW 20:52:07 37° NW visible
30 Sep -3.4 19:57:50 10° W 20:01:06 56° N 20:02:08 37° ENE visible
30 Sep -0.4 21:34:28 10° WNW 21:34:48 12° WNW 21:34:48 12° WNW visible
01 Oct -3.5 19:05:47 10° W 19:09:04 62° N 19:12:07 12° ENE visible
01 Oct -2.5 20:42:30 10° WNW 20:44:47 40° WNW 20:44:47 40° WNW visible
02 Oct -3.5 19:50:29 10° WNW 19:53:46 58° N 19:54:46 38° ENE visible
02 Oct -0.5 21:27:04 10° WNW 21:27:26 13° WNW 21:27:26 13° WNW visible
03 Oct -3.4 18:58:27 10° W 19:01:43 56° N 19:04:44 12° ENE visible
03 Oct -2.6 20:35:04 10° WNW 20:37:24 43° WNW 20:37:24 43° WNW visible
04 Oct -3.8 19:43:04 10° WNW 19:46:22 72° NNE 19:47:23 40° E visible
04 Oct -0.5 21:19:42 10° W 21:20:03 12° W 21:20:03 12° W visible
05 Oct -3.6 18:51:01 10° WNW 18:54:18 61° N 18:57:23 11° E visible
05 Oct -2.6 20:27:36 10° WNW 20:30:03 41° WSW 20:30:03 41° WSW visible
